Radiation Dose at Monitoring Post of Fukushima Daini Nuclear Power Station
Date,Time,MP-1(microSv/h),MP-2(microSv/h),MP-3(microSv/h),MP-4(microSv/h),MP-5(microSv/h),MP-6(microSv/h),MP-7(microSv/h),Wind Direction,Wind Velocity(m/s),Rain
2016/10/26,00:00,0.416,0.252,0.434,0.396,0.371,0.204,0.175,south,10.8,Yes
2016/10/26,00:10,0.420,0.250,0.434,0.397,0.368,0.204,0.175,south,10.4,Yes
2016/10/26,00:20,0.417,0.253,0.432,0.396,0.372,0.204,0.175,south,12.1,Yes
2016/10/26,00:30,0.418,0.250,0.433,0.396,0.369,0.204,0.176,south,11.2,No
2016/10/26,00:40,0.417,0.252,0.433,0.394,0.372,0.204,0.176,south,11.0,No
2016/10/26,00:50,0.420,0.251,0.433,0.399,0.369,0.203,0.176,south,9.2,No
2016/10/26,01:00,0.416,0.251,0.433,0.395,0.371,0.204,0.176,south,8.6,No
2016/10/26,01:10,0.418,0.249,0.432,0.397,0.368,0.203,0.175,south,8.7,No
2016/10/26,01:20,0.416,0.252,0.434,0.396,0.372,0.205,0.175,south,8.6,No
2016/10/26,01:30,0.417,0.250,0.432,0.396,0.367,0.203,0.176,south,7.7,No
2016/10/26,01:40,0.417,0.251,0.433,0.393,0.370,0.203,0.176,south,8.4,No
2016/10/26,01:50,0.417,0.249,0.431,0.396,0.369,0.205,0.174,south,7.5,No
2016/10/26,02:00,0.417,0.251,0.434,0.394,0.371,0.203,0.175,south,7.5,No
2016/10/26,02:10,0.416,0.251,0.430,0.396,0.370,0.203,0.174,south,7.3,No
2016/10/26,02:20,0.419,0.251,0.435,0.394,0.369,0.203,0.176,south,6.8,No
2016/10/26,02:30,0.416,0.251,0.431,0.397,0.369,0.204,0.175,south,8.6,No
2016/10/26,02:40,0.417,0.251,0.433,0.396,0.369,0.203,0.176,south,7.5,No
2016/10/26,02:50,0.415,0.251,0.432,0.396,0.368,0.204,0.175,south,9.7,No
2016/10/26,03:00,0.418,0.250,0.433,0.397,0.371,0.203,0.175,south,8.6,No
2016/10/26,03:10,0.416,0.252,0.435,0.395,0.370,0.203,0.175,south,8.9,No
2016/10/26,03:20,0.418,0.251,0.432,0.397,0.370,0.206,0.175,south,8.9,No
2016/10/26,03:30,0.415,0.251,0.433,0.395,0.370,0.202,0.174,south,9.5,No
2016/10/26,03:40,0.419,0.251,0.431,0.397,0.370,0.205,0.175,south,8.1,No
2016/10/26,03:50,0.417,0.250,0.434,0.393,0.371,0.203,0.176,south-southwest,7.8,No
2016/10/26,04:00,0.420,0.251,0.431,0.399,0.368,0.205,0.175,south-southwest,7.4,No
2016/10/26,04:10,0.417,0.251,0.432,0.395,0.371,0.203,0.176,south-southwest,5.2,No
2016/10/26,04:20,0.420,0.252,0.432,0.397,0.370,0.205,0.176,south-southwest,5.0,No
2016/10/26,04:30,0.417,0.252,0.433,0.395,0.370,0.204,0.175,south-southwest,5.7,No
2016/10/26,04:40,0.418,0.252,0.432,0.398,0.371,0.204,0.176,southwest,7.3,No
2016/10/26,04:50,0.417,0.252,0.433,0.394,0.370,0.203,0.175,south-southwest,6.7,No
2016/10/26,05:00,0.418,0.252,0.432,0.397,0.370,0.203,0.176,southwest,7.5,No
2016/10/26,05:10,0.416,0.251,0.433,0.396,0.369,0.204,0.175,southwest,7.3,No
2016/10/26,05:20,0.418,0.253,0.431,0.400,0.371,0.203,0.175,southwest,8.1,No
2016/10/26,05:30,0.416,0.250,0.433,0.396,0.368,0.204,0.174,southwest,8.8,No
2016/10/26,05:40,0.420,0.252,0.432,0.398,0.372,0.204,0.175,southwest,6.9,No
2016/10/26,05:50,0.415,0.251,0.434,0.395,0.368,0.205,0.175,southwest,7.5,No
2016/10/26,06:00,0.421,0.251,0.432,0.396,0.371,0.204,0.175,southwest,6.9,No
2016/10/26,06:10,0.418,0.252,0.434,0.395,0.370,0.205,0.176,southwest,5.9,No
2016/10/26,06:20,0.420,0.252,0.430,0.397,0.371,0.203,0.175,southwest,4.1,No
2016/10/26,06:30,0.417,0.252,0.435,0.395,0.369,0.204,0.175,southwest,2.9,No
2016/10/26,06:40,0.419,0.251,0.432,0.397,0.371,0.203,0.176,southwest,5.0,No
2016/10/26,06:50,0.417,0.252,0.434,0.393,0.369,0.203,0.176,southwest,6.1,No
2016/10/26,07:00,0.419,0.252,0.432,0.396,0.371,0.204,0.175,southwest,4.9,No
2016/10/26,07:10,0.416,0.251,0.436,0.395,0.368,0.205,0.173,southwest,5.9,No
2016/10/26,07:20,0.419,0.252,0.431,0.397,0.371,0.204,0.176,southwest,5.6,No
2016/10/26,07:30,0.417,0.252,0.435,0.397,0.369,0.204,0.176,west-southwest,5.6,No
2016/10/26,07:40,0.419,0.252,0.432,0.392,0.371,0.205,0.174,southwest,2.8,No
2016/10/26,07:50,0.416,0.252,0.433,0.396,0.370,0.203,0.174,southwest,3.0,No
2016/10/26,08:00,0.418,0.251,0.432,0.393,0.369,0.204,0.175,south,3.1,No
2016/10/26,08:10,0.416,0.250,0.431,0.392,0.372,0.204,0.175,south,4.9,No
2016/10/26,08:20,0.417,0.252,0.432,0.395,0.367,0.203,0.175,south,5.0,No
2016/10/26,08:30,0.419,0.251,0.430,0.397,0.371,0.203,0.174,south,5.2,No
2016/10/26,08:40,0.416,0.251,0.433,0.392,0.368,0.202,0.173,south,5.0,No
2016/10/26,08:50,0.419,0.252,0.430,0.390,0.368,0.204,0.172,south,6.0,No
2016/10/26,09:00,0.416,0.251,0.433,0.398,0.372,0.205,0.173,south,6.1,No
2016/10/26,09:10,0.416,0.250,0.433,0.395,0.368,0.203,0.173,south,5.3,No
2016/10/26,09:20,0.418,0.248,0.431,0.394,0.369,0.204,0.174,south-southwest,4.2,No
2016/10/26,09:30,0.415,0.249,0.433,0.392,0.372,0.204,0.173,south-southwest,3.5,No
2016/10/26,09:40,0.415,0.249,0.432,0.391,0.370,0.204,0.174,southwest,5.1,No
2016/10/26,09:50,0.414,0.249,0.432,0.391,0.369,0.202,0.174,southwest,6.1,No
2016/10/26,10:00,0.413,0.250,0.434,0.391,0.367,0.203,0.174,west-southwest,5.3,No
2016/10/26,10:10,0.413,0.251,0.428,0.394,0.367,0.203,0.174,west,5.0,No
2016/10/26,10:20,0.413,0.250,0.433,0.391,0.366,0.203,0.174,west-northwest,4.5,No
2016/10/26,10:30,0.417,0.251,0.434,0.393,0.368,0.204,0.175,west-northwest,8.3,No
2016/10/26,10:40,0.415,0.250,0.431,0.393,0.366,0.203,0.174,west-northwest,8.9,No
2016/10/26,10:50,0.414,0.250,0.429,0.393,0.366,0.204,0.175,west-northwest,8.7,No
2016/10/26,11:00,0.416,0.251,0.436,0.395,0.365,0.204,0.175,northwest,7.0,No
2016/10/26,11:10,0.415,0.251,0.434,0.394,0.369,0.204,0.174,northwest,5.0,No
2016/10/26,11:20,0.415,0.251,0.430,0.396,0.370,0.203,0.175,west-northwest,4.5,No
2016/10/26,11:30,0.415,0.251,0.428,0.395,0.369,0.204,0.176,south-southwest,2.8,No
2016/10/26,11:40,0.414,0.252,0.433,0.395,0.370,0.204,0.174,south,4.2,No
2016/10/26,11:50,0.417,0.250,0.437,0.396,0.370,0.204,0.174,south,5.4,No
2016/10/26,12:00,0.415,0.251,0.434,0.396,0.369,0.206,0.173,south,5.1,No
2016/10/26,12:10,0.414,0.250,0.430,0.395,0.370,0.206,0.174,south,4.6,No
2016/10/26,12:20,0.419,0.250,0.430,0.395,0.367,0.205,0.175,south,4.2,No
2016/10/26,12:30,0.421,0.251,0.429,0.394,0.368,0.204,0.176,south,4.1,No
2016/10/26,12:40,0.420,0.250,0.429,0.394,0.368,0.203,0.176,south,3.6,No
2016/10/26,12:50,0.415,0.250,0.429,0.394,0.371,0.204,0.176,south-southwest,2.6,No
2016/10/26,13:00,0.418,0.250,0.430,0.394,0.369,0.206,0.175,south,2.5,No
2016/10/26,13:10,0.422,0.251,0.429,0.394,0.368,0.205,0.174,south-southeast,2.2,No
2016/10/26,13:20,0.421,0.251,0.432,0.396,0.370,0.205,0.174,south-southwest,2.5,No
2016/10/26,13:30,0.417,0.251,0.431,0.396,0.367,0.204,0.174,west-northwest,2.2,No
2016/10/26,13:40,0.414,0.251,0.431,0.395,0.370,0.204,0.173,west-northwest,5.3,No
2016/10/26,13:50,0.414,0.252,0.433,0.396,0.369,0.204,0.174,northwest,4.8,No
2016/10/26,14:00,0.417,0.253,0.431,0.396,0.370,0.205,0.176,west-northwest,2.8,No
2016/10/26,14:10,0.423,0.253,0.431,0.395,0.368,0.205,0.176,northwest,4.4,No
2016/10/26,14:20,0.419,0.251,0.429,0.393,0.368,0.205,0.175,northwest,2.5,No
2016/10/26,14:30,0.416,0.252,0.436,0.393,0.368,0.206,0.173,northwest,2.2,No
2016/10/26,14:40,0.420,0.251,0.434,0.399,0.368,0.205,0.176,northwest,3.1,No
2016/10/26,14:50,0.420,0.253,0.431,0.399,0.367,0.204,0.176,northwest,3.0,No
2016/10/26,15:00,0.419,0.254,0.431,0.397,0.370,0.205,0.174,northwest,3.1,No
2016/10/26,15:10,0.416,0.252,0.436,0.394,0.372,0.205,0.176,west-northwest,1.8,No
2016/10/26,15:20,0.421,0.251,0.435,0.398,0.370,0.204,0.175,west-southwest,1.5,No
2016/10/26,15:30,0.418,0.254,0.429,0.397,0.367,0.205,0.174,west-southwest,1.4,No
2016/10/26,15:40,0.417,0.252,0.434,0.394,0.370,0.204,0.177,west,1.4,No
2016/10/26,15:50,0.420,0.252,0.437,0.397,0.373,0.203,0.175,west-northwest,1.3,No
2016/10/26,16:00,0.418,0.254,0.433,0.399,0.368,0.203,0.175,north,2.8,No
2016/10/26,16:10,0.419,0.253,0.435,0.396,0.368,0.204,0.176,north-northwest,3.5,No
2016/10/26,16:20,0.420,0.252,0.434,0.397,0.373,0.203,0.176,north-northwest,3.3,No
2016/10/26,16:30,0.417,0.254,0.434,0.398,0.370,0.204,0.175,north-northwest,1.8,No
2016/10/26,16:40,0.419,0.252,0.434,0.395,0.371,0.204,0.175,north-northwest,1.0,No
2016/10/26,16:50,0.418,0.254,0.434,0.399,0.373,0.202,0.175,south-southeast,0.8,No
2016/10/26,17:00,0.416,0.252,0.432,0.396,0.368,0.205,0.176,southeast,0.7,No
2016/10/26,17:10,0.420,0.255,0.436,0.396,0.372,0.204,0.175,southeast,1.3,No
2016/10/26,17:20,0.417,0.252,0.434,0.398,0.369,0.204,0.176,south-southeast,0.6,No
2016/10/26,17:30,0.421,0.253,0.436,0.397,0.372,0.204,0.176,south-southeast,1.4,No
2016/10/26,17:40,0.417,0.253,0.435,0.399,0.370,0.204,0.176,north-northwest,0.6,No
2016/10/26,17:50,0.420,0.253,0.434,0.395,0.370,0.204,0.175,north,1.5,No
2016/10/26,18:00,0.417,0.252,0.437,0.399,0.371,0.204,0.176,north-northwest,2.1,No
2016/10/26,18:10,0.419,0.252,0.432,0.395,0.371,0.204,0.176,north-northwest,3.0,No
2016/10/26,18:20,0.420,0.253,0.435,0.398,0.371,0.204,0.176,north-northwest,5.2,No
2016/10/26,18:30,0.419,0.252,0.433,0.398,0.370,0.204,0.175,north-northwest,5.0,No
2016/10/26,18:40,0.419,0.253,0.436,0.397,0.372,0.204,0.177,north-northwest,5.0,No
2016/10/26,18:50,0.419,0.253,0.432,0.397,0.369,0.204,0.175,north,5.4,No
2016/10/26,19:00,0.419,0.252,0.436,0.397,0.372,0.204,0.176,north,5.3,No
2016/10/26,19:10,0.418,0.253,0.433,0.398,0.369,0.205,0.176,north,6.1,No
2016/10/26,19:20,0.419,0.253,0.435,0.396,0.372,0.203,0.176,north,6.3,No
2016/10/26,19:30,0.416,0.252,0.433,0.399,0.369,0.205,0.176,north,6.3,No
2016/10/26,19:40,0.420,0.254,0.436,0.396,0.371,0.205,0.176,north-northeast,6.5,No
2016/10/26,19:50,0.417,0.252,0.435,0.398,0.372,0.204,0.176,north-northeast,6.7,No
2016/10/26,20:00,0.419,0.253,0.434,0.395,0.369,0.204,0.177,north-northeast,5.6,No
2016/10/26,20:10,0.418,0.253,0.436,0.399,0.372,0.204,0.176,north-northeast,5.5,No
2016/10/26,20:20,0.419,0.253,0.433,0.396,0.369,0.204,0.175,northeast,3.3,No
2016/10/26,20:30,0.420,0.253,0.436,0.398,0.373,0.203,0.175,north-northeast,3.4,No
2016/10/26,20:40,0.418,0.253,0.432,0.394,0.368,0.205,0.177,north-northeast,3.6,No
2016/10/26,20:50,0.420,0.253,0.437,0.396,0.373,0.204,0.175,north-northeast,3.2,No
2016/10/26,21:00,0.419,0.254,0.433,0.396,0.369,0.205,0.176,north,2.5,No
2016/10/26,21:10,0.418,0.252,0.437,0.398,0.373,0.205,0.176,north,1.9,No
2016/10/26,21:20,0.420,0.253,0.433,0.397,0.370,0.204,0.177,north-northeast,1.0,No
2016/10/26,21:30,0.420,0.252,0.435,0.398,0.372,0.204,0.175,north,1.0,No
2016/10/26,21:40,0.418,0.253,0.435,0.399,0.370,0.204,0.176,north-northwest,1.0,No
2016/10/26,21:50,0.418,0.251,0.437,0.396,0.372,0.204,0.176,north-northwest,1.0,No
2016/10/26,22:00,0.418,0.254,0.434,0.398,0.371,0.204,0.176,north,1.0,No
2016/10/26,22:10,0.419,0.252,0.436,0.396,0.371,0.203,0.176,north-northeast,0.8,No
2016/10/26,22:20,0.419,0.253,0.434,0.398,0.370,0.205,0.176,north-northeast,1.4,No
2016/10/26,22:30,0.419,0.253,0.435,0.395,0.369,0.204,0.175,northeast,1.3,No
2016/10/26,22:40,0.418,0.253,0.435,0.398,0.372,0.205,0.177,northeast,1.0,No
2016/10/26,22:50,0.420,0.253,0.433,0.396,0.369,0.204,0.177,-,CALM,Yes
2016/10/26,23:00,0.417,0.253,0.436,0.401,0.372,0.204,0.176,north,1.8,Yes
2016/10/26,23:10,0.422,0.252,0.434,0.396,0.370,0.204,0.175,north,3.9,Yes
2016/10/26,23:20,0.418,0.254,0.436,0.400,0.372,0.204,0.177,north,5.5,No
2016/10/26,23:30,0.422,0.252,0.435,0.395,0.370,0.205,0.176,north,5.0,No
2016/10/26,23:40,0.415,0.254,0.437,0.400,0.373,0.205,0.176,north,5.6,No
2016/10/26,23:50,0.421,0.251,0.434,0.397,0.370,0.205,0.175,north,7.9,No
